Volver al catálogo

EUTE 36A

EUTE W4

ActivoComunicacionesGEO
NORAD 26369·PAYLOAD·🇪🇺 EU

Lanzado May 24, 2000 desde Cape Canaveral Space Force Station

Loading…

TLE

ActualizadoSource: Space-Track

Época: Sep 14, 2026, 13:56 UTC

1 26369U 00028A   26257.58073288 -.00000230  00000-0  00000-0 0  9995
2 26369   8.8025  60.9204 0008271 256.6065  49.3454  0.98472276 96009

Sigue EUTE 36A en tiempo real con AllMySat

Download on the App Store